Location: Northam
(31.6525°S, 116.6655°E)
Time: 17:07:47
(UTC+08:00)

Hubble Space Telescope - Pass Details

Date: 23 May 2021
Orbit: 535 x 539 km, 28.5° (Epoch: 17 June)

Event Time Altitude Azimuth Distance (km) Brightness Sun altitude
Rises 19:53:10 0° 272° (W) 2,691 5.5 -32.1°
Reaches altitude 10° 19:55:41 10° 284° (WNW) 1,798 4.3 -32.6°
Enters shadow 19:57:06 18° 298° (WNW) 1,373 3.4 -32.9°
